Land O' Lakes, WI

11:45 AM CST on January 19, 2018 (GMT -0600)
Kings Land O'Lakes

Weather History for KLNL - July, 2013

Change the Weather History Date:

Wednesday, July 31, 2013

  Actual Average (KEGV) Record (KEGV)
Temperature  
Mean Temperature 61 °F -  
Max Temperature 73 °F 75 °F 91 °F (2006)
Min Temperature 49 °F 52 °F 42 °F (1998)
Degree Days  
Heating Degree Days 4    
Growing Degree Days 11 (Base 50)    
Moisture  
Dew Point 58 °F    
Average Humidity 84    
Maximum Humidity 99    
Minimum Humidity 59    
Precipitation  
Precipitation 0.00 in - - ()
Sea Level Pressure  
Sea Level Pressure 30.01 in    
Wind  
Wind Speed 2 mph (West)    
Max Wind Speed 15 mph    
Max Gust Speed 26 mph    
Visibility 9 miles    
Events Rain , Thunderstorm    
Averages and records for this station are not official NWS values.
T = Trace of Precipitation, MM = Missing Value Source: NWS Daily Summary

Daily Weather History Graph

Daily Weather History Graph

Search for Another Location

Airport or City:

Trip Planner

Search our weather history database for the weather conditions in past years. The results will help you decide how hot, cold, wet, or windy it might be!

Date:

Astronomy

Jul. 31, 2013 Rise Set
Actual Time 5:37 AM CDT 8:27 PM CDT
Civil Twilight 5:03 AM CDT 9:02 PM CDT
Nautical Twilight 4:18 AM CDT 9:46 PM CDT
Astronomical Twilight 3:26 AM CDT 10:38 PM CDT
Moon 12:33 AM CDT (7/31) 3:44 PM CDT (7/31)
Length of Visible Light 15h 59m
Length of Day
14h 49m
Waning Crescent, 31% of the Moon is Illuminated
Jul 31
Waning Crescent
Aug 6
New
Aug 14
First Quarter
Aug 20
Full
Aug 28
Last Quarter

Hourly Weather History & Observations

Time (CDT) Temp. Dew Point Humidity Pressure Visibility Wind Dir Wind Speed Gust Speed Precip Events Conditions
12:15 AM 61.3 °F 59.2 °F 93% 30.10 in 10.0 mi Calm Calm - N/A   Overcast
12:35 AM 60.8 °F 59.4 °F 95% 30.09 in 10.0 mi Calm Calm - N/A   Overcast
12:55 AM 61.0 °F 59.4 °F 94% 30.09 in 10.0 mi Calm Calm - N/A   Overcast
1:35 AM 61.2 °F 59.2 °F 93% 30.07 in 10.0 mi Calm Calm - N/A   Overcast
1:55 AM 61.0 °F 59.9 °F 96% 30.06 in 10.0 mi Calm Calm - N/A   Mostly Cloudy
2:15 AM 60.3 °F 59.0 °F 96% 30.06 in 10.0 mi Calm Calm - N/A   Mostly Cloudy
2:35 AM 59.5 °F 58.5 °F 96% 30.06 in 7.0 mi Calm Calm - N/A   Overcast
2:55 AM 59.9 °F 59.0 °F 97% 30.06 in 10.0 mi Calm Calm - N/A   Overcast
3:15 AM 59.9 °F 59.2 °F 97% 30.06 in 10.0 mi Calm Calm - N/A   Overcast
3:35 AM 59.9 °F 59.0 °F 97% 30.05 in 10.0 mi Calm Calm - N/A   Overcast
3:55 AM 59.5 °F 59.0 °F 98% 30.05 in 10.0 mi Calm Calm - N/A   Overcast
4:15 AM 59.0 °F 58.3 °F 97% 30.05 in 7.0 mi Calm Calm - N/A   Overcast
4:35 AM 59.4 °F 59.0 °F 99% 30.06 in 7.0 mi Calm Calm - N/A   Overcast
4:55 AM 59.5 °F 59.0 °F 98% 30.05 in 7.0 mi Calm Calm - N/A   Overcast
5:15 AM 58.1 °F 57.4 °F 97% 30.05 in 3.0 mi Calm Calm - N/A   Mostly Cloudy
5:35 AM 58.5 °F 58.1 °F 99% 30.05 in 7.0 mi Calm Calm - N/A   Overcast
5:55 AM 59.2 °F 59.0 °F 99% 30.06 in 5.0 mi Calm Calm - N/A   Overcast
6:15 AM 61.0 °F 60.6 °F 99% 30.06 in 7.0 mi Calm Calm - N/A   Overcast
6:35 AM 61.2 °F 60.8 °F 99% 30.06 in 7.0 mi West 3.5 mph - N/A   Mostly Cloudy
6:55 AM 61.7 °F 61.0 °F 97% 30.06 in 10.0 mi WSW 4.6 mph - N/A   Scattered Clouds
7:15 AM 62.1 °F 60.1 °F 93% 30.06 in 10.0 mi West 3.5 mph - N/A   Clear
7:35 AM 63.1 °F 59.9 °F 89% 30.05 in 10.0 mi West 3.5 mph - N/A   Clear
7:55 AM 64.0 °F 59.5 °F 85% 30.05 in 10.0 mi West 4.6 mph - N/A   Clear
8:15 AM 65.3 °F 59.5 °F 82% 30.06 in 10.0 mi West 5.8 mph - N/A   Scattered Clouds
8:35 AM 65.3 °F 59.5 °F 82% 30.06 in 10.0 mi West 6.9 mph - N/A   Scattered Clouds
8:55 AM 65.1 °F 59.4 °F 82% 30.05 in 10.0 mi West 5.8 mph - N/A   Scattered Clouds
9:15 AM 64.9 °F 59.7 °F 83% 30.04 in 10.0 mi WSW 4.6 mph - N/A   Mostly Cloudy
9:35 AM 64.9 °F 59.7 °F 83% 30.03 in 10.0 mi WSW 3.5 mph - N/A   Mostly Cloudy
9:55 AM 66.2 °F 59.9 °F 80% 30.02 in 10.0 mi WSW 4.6 mph - N/A   Mostly Cloudy
10:15 AM 67.5 °F 60.1 °F 77% 30.02 in 10.0 mi SW 5.8 mph - N/A   Scattered Clouds
10:35 AM 67.5 °F 60.4 °F 78% 30.02 in 10.0 mi SW 6.9 mph - N/A   Clear
10:55 AM 68.5 °F 60.4 °F 75% 30.02 in 10.0 mi WSW 6.9 mph - N/A   Clear
11:15 AM 68.9 °F 60.6 °F 75% 30.02 in 10.0 mi WSW 6.9 mph - N/A   Scattered Clouds
11:35 AM 68.7 °F 60.3 °F 74% 30.01 in 10.0 mi West 4.6 mph - N/A   Mostly Cloudy
11:55 AM 69.6 °F 59.9 °F 71% 30.01 in 10.0 mi WSW 6.9 mph - N/A   Scattered Clouds
12:15 PM 69.1 °F 60.1 °F 73% 30.00 in 10.0 mi SW 8.1 mph - N/A   Scattered Clouds
12:35 PM 70.5 °F 59.5 °F 68% 29.99 in 10.0 mi WSW 5.8 mph - N/A   Clear
12:55 PM 70.7 °F 60.1 °F 69% 29.99 in 10.0 mi WSW 4.6 mph - N/A   Scattered Clouds
1:15 PM 70.0 °F 59.9 °F 70% 29.98 in 10.0 mi SW 8.1 mph - N/A   Mostly Cloudy
1:35 PM 71.6 °F 59.9 °F 66% 29.97 in 10.0 mi SW 9.2 mph - N/A   Mostly Cloudy
1:55 PM 71.8 °F 59.4 °F 65% 29.97 in 10.0 mi WSW 10.4 mph 16.1 mph N/A   Scattered Clouds
2:15 PM 72.1 °F 59.7 °F 65% 29.97 in 10.0 mi SW 6.9 mph - N/A   Scattered Clouds
2:35 PM 72.0 °F 59.4 °F 64% 29.96 in 10.0 mi WSW 6.9 mph 17.3 mph N/A   Scattered Clouds
2:55 PM 72.5 °F 59.5 °F 64% 29.95 in 10.0 mi West 8.1 mph - N/A   Clear
3:15 PM 73.8 °F 58.6 °F 59% 29.95 in 10.0 mi WSW 5.8 mph 17.3 mph N/A   Clear
3:35 PM 72.5 °F 57.2 °F 59% 29.95 in 10.0 mi WSW 10.4 mph - N/A   Scattered Clouds
3:55 PM 70.9 °F 57.2 °F 62% 29.96 in 10.0 mi West 5.8 mph - N/A   Scattered Clouds
4:15 PM 66.6 °F 53.1 °F 62% 29.98 in 10.0 mi NW 15.0 mph 26.5 mph N/A Thunderstorm Mostly Cloudy
4:35 PM 60.6 °F 55.2 °F 82% 29.97 in 7.0 mi WNW 5.8 mph - N/A Rain Light Rain
4:55 PM 61.7 °F 56.3 °F 82% 29.97 in 10.0 mi WSW 4.6 mph - N/A Rain Light Rain
5:15 PM 62.4 °F 57.2 °F 83% 29.96 in 10.0 mi Calm Calm - N/A Rain Light Rain
5:35 PM 63.5 °F 56.7 °F 78% 29.96 in 10.0 mi WSW 4.6 mph - N/A Rain Light Rain
5:55 PM 64.8 °F 58.5 °F 80% 29.96 in 10.0 mi West 3.5 mph - N/A   Mostly Cloudy
6:15 PM 66.6 °F 58.1 °F 74% 29.95 in 10.0 mi West 3.5 mph - N/A   Scattered Clouds
6:35 PM 66.4 °F 58.6 °F 76% 29.95 in 10.0 mi SW 4.6 mph - N/A   Clear
6:55 PM 66.4 °F 59.2 °F 78% 29.95 in 10.0 mi Calm Calm - N/A   Clear
7:15 PM 67.1 °F 57.7 °F 72% 29.94 in 10.0 mi Calm Calm - N/A   Clear
7:35 PM 65.3 °F 57.6 °F 76% 29.94 in 10.0 mi NW 3.5 mph - N/A   Scattered Clouds
7:55 PM 65.1 °F 57.9 °F 77% 29.94 in 10.0 mi WNW 3.5 mph - N/A   Scattered Clouds
8:15 PM 63.7 °F 58.1 °F 82% 29.95 in 10.0 mi Calm Calm - N/A   Clear
8:35 PM 61.7 °F 57.7 °F 87% 29.95 in 10.0 mi Calm Calm - N/A   Scattered Clouds
8:55 PM 57.6 °F 55.8 °F 94% 29.96 in 10.0 mi WNW 3.5 mph - N/A   Scattered Clouds
9:15 PM 61.0 °F 55.8 °F 83% 29.97 in 10.0 mi WNW 3.5 mph - N/A   Clear
9:35 PM 61.2 °F 54.0 °F 77% 29.97 in 10.0 mi NW 3.5 mph - N/A   Clear
9:55 PM 56.3 °F 53.1 °F 89% 29.97 in 10.0 mi Calm Calm - N/A   Clear
10:15 PM 53.6 °F 52.2 °F 95% 29.97 in 10.0 mi Calm Calm - N/A   Clear
10:35 PM 52.0 °F 50.9 °F 96% 29.96 in 7.0 mi Calm Calm - N/A   Clear
10:55 PM 51.6 °F 50.7 °F 97% 29.96 in 7.0 mi Calm Calm - N/A   Clear
11:15 PM 50.7 °F 50.0 °F 97% 29.97 in 10.0 mi Calm Calm - N/A   Clear
11:35 PM 49.6 °F 48.9 °F 97% 29.96 in 10.0 mi Calm Calm - N/A   Clear
11:55 PM 51.8 °F 51.6 °F 99% 29.96 in 10.0 mi WNW 3.5 mph - N/A   Clear